Location: Poughquag
(41.6090°N, 73.6820°W)
Time: 12:52:33
(UTC-04:00)

Vanguard 2 Rocket - Pass Details

Date: 01 June 2020
Orbit: 556 x 3324 km, 32.9° (Epoch: 06 July)

Event Time Altitude Azimuth Distance (km) Brightness Sun altitude
Rises 23:35:12 0° 265° (W) 6,566 11.5 -23.7°
Reaches altitude 10° 23:46:33 10° 233° (SW) 6,118 10.9 -24.3°
Maximum altitude 23:49:07 10° 225° (SW) 6,155 10.8 -24.5°
Drops below altitude 10° 23:51:44 10° 217° (SW) 6,240 10.8 -24.6°
Enters shadow 23:54:56 - 208° (SSW) 6,403 10.8 -24.8°
Sets 00:04:32 0° 185° (S) 7,187 - -25.2°
